Change the Weather History Date:

Tuesday, March 11, 2014

  Actual Average Record
Temperature  
Mean Temperature -2 °F -  
Max Temperature 17 °F 12 °F 41 °F (1988)
Min Temperature -22 °F -9 °F -42 °F (1963)
Degree Days  
Heating Degree Days 68    
Moisture  
Dew Point -1 °F    
Average Humidity 69    
Maximum Humidity 85    
Minimum Humidity 48    
Precipitation  
Precipitation 0.03 in - - ()
Snow  
Snow 0.00 in - - ()
Snow Depth 29.00 in    
Sea Level Pressure  
Sea Level Pressure 29.25 in    
Wind  
Wind Speed 5 mph (NNW)    
Max Wind Speed 8 mph    
Max Gust Speed -    
Visibility 6 miles    
Events Snow    
Averages and records for this station are not official NWS values.
T = Trace of Precipitation, MM = Missing Value Source: NWS Daily Summary

Daily Weather History Graph

Daily Weather History Graph

Search for Another Location

Airport or City:

Trip Planner

Search our weather history database for the weather conditions in past years. The results will help you decide how hot, cold, wet, or windy it might be!

Date:

Astronomy

Mar. 11, 2014 Rise Set
Actual Time 8:41 AM AKDT 7:52 PM AKDT
Civil Twilight 7:48 AM AKDT 8:45 PM AKDT
Nautical Twilight 6:45 AM AKDT 9:48 PM AKDT
Astronomical Twilight 5:36 AM AKDT 10:59 PM AKDT
Moon 2:03 PM AKDT (3/11) 7:20 AM AKDT (3/11)
Length of Visible Light 12h 57m
Length of Day
11h 11m
Waxing Gibbous, 79% of the Moon is Illuminated
Mar 11
Waxing Gibbous
Mar 16
Full
Mar 23
Last Quarter
Mar 30
New
Apr 7
First Quarter

Hourly Weather History & Observations

Time (AKDT) Temp. Windchill Dew Point Humidity Pressure Visibility Wind Dir Wind Speed Gust Speed Precip Events Conditions
12:53 AM 3.9 °F -8.2 °F -11.2 °F 50% 29.40 in 10.0 mi North 6.9 mph - N/A   Overcast
1:53 AM 5.0 °F -4.1 °F -11.0 °F 48% 29.37 in 10.0 mi North 4.6 mph - N/A   Overcast
2:53 AM 6.1 °F -4.3 °F -9.0 °F 50% 29.36 in 10.0 mi North 5.8 mph - N/A Snow Light Snow
3:11 AM 5.0 °F -4.1 °F -7.6 °F 56% 29.29 in 4.0 mi North 4.6 mph - N/A Snow Light Snow
3:20 AM 5.0 °F -5.6 °F -7.6 °F 56% 29.29 in 1.8 mi North 5.8 mph - N/A Snow Light Snow
3:53 AM 1.9 °F -7.6 °F -5.1 °F 72% 29.34 in 2.0 mi NW 4.6 mph - N/A Snow Light Snow
4:46 AM 1.4 °F -9.9 °F -2.2 °F 85% 29.25 in 3.0 mi NNW 5.8 mph - N/A Snow Light Snow
4:53 AM 3.0 °F -8.0 °F -2.9 °F 76% 29.31 in 3.0 mi NNW 5.8 mph - N/A Snow Light Snow
5:53 AM 3.0 °F -10.5 °F -2.9 °F 76% 29.29 in 3.0 mi NNW 8.1 mph - N/A Snow Light Snow
6:06 AM 3.2 °F -9.1 °F -2.2 °F 78% 29.22 in 3.0 mi NNW 6.9 mph - N/A Snow Light Snow
6:15 AM 3.2 °F -9.1 °F -2.2 °F 78% 29.22 in 4.0 mi NNW 6.9 mph - N/A Snow Light Snow
6:45 AM 1.4 °F -8.3 °F -2.2 °F 85% 29.22 in 2.5 mi NNW 4.6 mph - N/A Snow Light Snow
6:53 AM 3.0 °F -6.4 °F -2.9 °F 76% 29.28 in 3.0 mi NNW 4.6 mph - N/A Snow Light Snow
7:24 AM 1.4 °F -9.9 °F -2.2 °F 85% 29.22 in 3.0 mi NW 5.8 mph - N/A Snow Light Snow
7:48 AM 1.4 °F -8.3 °F -2.2 °F 85% 29.21 in 3.0 mi NNW 4.6 mph - N/A Snow Light Snow
7:53 AM 1.9 °F -9.2 °F -2.9 °F 80% 29.28 in 3.0 mi NW 5.8 mph - N/A Snow Light Snow
8:02 AM 1.4 °F -9.9 °F -4.0 °F 78% 29.21 in 2.0 mi NW 5.8 mph - N/A Snow Light Snow
8:13 AM 1.4 °F -8.3 °F -2.2 °F 85% 29.21 in 2.0 mi NNW 4.6 mph - N/A Snow Light Snow
8:53 AM 1.9 °F -5.6 °F -2.9 °F 80% 29.28 in 2.5 mi NNW 3.5 mph - N/A Snow Light Snow
9:44 AM 1.4 °F -8.3 °F -2.2 °F 85% 29.19 in 3.0 mi NNW 4.6 mph - N/A Snow Light Snow
9:53 AM 1.9 °F -7.6 °F -4.0 °F 76% 29.26 in 6.0 mi NNW 4.6 mph - N/A Snow Light Snow
10:53 AM 3.9 °F - -2.0 °F 76% 29.26 in 10.0 mi Calm Calm - N/A   Scattered Clouds
11:53 AM 7.0 °F -3.3 °F -0.0 °F 73% 29.25 in 10.0 mi NW 5.8 mph - N/A   Scattered Clouds
12:53 PM 10.0 °F 3.6 °F 1.0 °F 67% 29.26 in 10.0 mi NW 3.5 mph - N/A   Scattered Clouds
1:53 PM 12.0 °F 5.9 °F 1.9 °F 64% 29.24 in 10.0 mi NW 3.5 mph - N/A   Mostly Cloudy
2:53 PM 12.9 °F 5.2 °F 3.9 °F 67% 29.22 in 10.0 mi NNW 4.6 mph - N/A   Mostly Cloudy
3:53 PM 15.1 °F 6.4 °F 3.9 °F 61% 29.21 in 10.0 mi NNW 5.8 mph - N/A   Overcast
4:53 PM 17.1 °F 10.0 °F 5.0 °F 59% 29.20 in 10.0 mi NW 4.6 mph - N/A   Mostly Cloudy
5:53 PM 17.1 °F 11.7 °F 6.1 °F 62% 29.18 in 10.0 mi NW 3.5 mph - N/A   Overcast
6:53 PM 17.1 °F 11.7 °F 6.1 °F 62% 29.18 in 10.0 mi WNW 3.5 mph - N/A Snow Light Snow
7:53 PM 15.1 °F 7.7 °F 6.1 °F 68% 29.18 in 10.0 mi NW 4.6 mph - N/A   Overcast
8:53 PM 15.1 °F 7.7 °F 6.1 °F 68% 29.18 in 10.0 mi North 4.6 mph - N/A   Overcast
9:53 PM 15.1 °F - 6.1 °F 68% 29.19 in 10.0 mi Calm Calm - N/A   Overcast
10:53 PM 14.0 °F - 6.1 °F 71% 29.20 in 10.0 mi Calm Calm - N/A   Mostly Cloudy
11:53 PM 12.0 °F 5.9 °F 5.0 °F 73% 29.20 in 10.0 mi NNE 3.5 mph - N/A   Overcast